Weather Roundup
Issued by NWS Chicago, IL

Home | Current Version | Previous Version | Text Only | Print | Product List | Glossary Off
Versions: 1 2 3 4 5 6 7 8 9 10 11 12 13 14 15 16 17 18 19 20 21 22 23 24 25 26 27 28 29 30 31 32 33 34 35 36 37 38 39 40 41 42 43 44 45 46 47 48 49 50

000
NZUS59 KLOT 300906
HRRLOT

CHICAGO AREA WEATHER ROUNDUP
NATIONAL WEATHER SERVICE CHICAGO/ROMEOVILLE IL
400 AM CDT WED JUL 30 2014

NOTE: "FAIR" INDICATES FEW OR NO CLOUDS BELOW 12,000 FEET WITH NO
SIGNIFICANT WEATHER AND/OR OBSTRUCTIONS TO VISIBILITY.

* THESE STATIONS ARE NOT UNDER NWS QUALITY CONTROL. THEY ALSO MAY NOT
  REPORT WEATHER SUCH AS PRECIPITATION OR FOG.

ILZ005-006-012>014-019>023-301000-
NORTHEAST ILLINOIS

CITY           SKY/WX    TMP DP  RH WIND       PRES   REMARKS
OHARE          PTCLDY    60  53  77 SW5       30.00S
MIDWAY         PTCLDY    62  56  80 W3        30.00S
AURORA         PTCLDY    57  53  86 CALM      30.02S
LANSING*       CLEAR     55  52  90 CALM      30.01S
JOLIET*        CLOUDY    59  56  89 CALM      30.02S
WAUKEGAN       CLEAR     58  55  90 VRB5      29.99S
DUPAGE AIRPORT CLEAR     58  55  90 CALM      30.01S
WHEELING       CLEAR     61  56  83 CALM      30.02R
KANKAKEE*      PTCLDY    59  58  96 W6        30.02S
MORRIS*        CLOUDY    60  59  99 CALM      30.01S
LEWIS AIRPORT* CLOUDY    58  56  94 NW5       30.02S
NORTHERLY IS     N/A     63  55  75 W3          N/A
$$

WIZ051-052-058>065-066-070>072-301000-
SOUTHEAST WISCONSIN

CITY           SKY/WX    TMP DP  RH WIND       PRES   REMARKS
MILWAUKEE      MOCLDY    60  55  83 NW5       30.00R
KENOSHA*       CLEAR     56  55  97 W3        30.00S
RACINE*        PTCLDY    58  55  90 W7        30.00S
BURLINGTON     PTCLDY    55  55 100 SW5       30.00S
WAUKESHA       MOCLDY    55  55 100 W7        30.01S
WEST BEND      PTCLDY    55  52  88 CALM      30.00R
$$

INZ001>003-010>013-019-020-301000-
NORTHWEST INDIANA

CITY           SKY/WX    TMP DP  RH WIND       PRES   REMARKS
GARY*          PTCLDY    60  57  91 CALM      30.02R
MICHIGAN CITY* NOT AVBL
RENSSELAER*    NOT AVBL
VALPARAISO     CLEAR     58  57  97 W7        30.01S
$$

LMZ740>746-301000-
SOUTHERN LAKE MICHIGAN

STATION/POSITION TIME  SKY/WX   TEMP WIND        PRES    VSBY
                                AIR  DIR/SP/G
                 (UTC)          (F)  (DEG/KT/KT) (MB)    (MI)
HARRISON CRIB    0900            64  270/  5/  5   N/A
BURNHAM HARBOR   0900            63  230/  4/ 10   N/A
CALUMET HARBOR   0900            62  260/  2/  3 1014.8S
BURNS HARBOR     NOT AVBL
MICHIGAN CITY    0900            63  190/  3/  4   N/A
$$

ABBREVIATIONS USED IN REMARKS
   TC - TEMPERATURE IN CELSIUS
  WCI - WIND CHILL INDEX
   HX - HEAT INDEX
  VSB - VISIBILITY
$$



USA.gov is the U.S. government's official web portal to all federal, state and local government web resources and services.